Regional Weather Roundup
Issued by NWS Pendleton, OR

Home | Current Version | Previous Version | Text Only | Print | Product List | Glossary On
Versions: 1 2 3 4 5 6 7 8 9 10 11 12 13 14 15 16 17 18 19 20 21 22 23 24 25 26 27 28 29 30 31 32 33 34 35 36 37 38 39 40 41 42 43 44 45 46 47 48 49 50
000
ASUS46 KPDT 311625
RWRPDT
PENDLETON REGIONAL WEATHER ROUNDUP
NATIONAL WEATHER SERVICE PENDLETON OREGON
900 AM PDT FRI OCT 31 2014

NOTE: FAIR INDICATES FEW OR NO CLOUDS BELOW 12,000 FEET WITH NO
SIGNIFICANT WEATHER AND/OR OBSTRUCTIONS TO VISIBILITY.

# INDICATES UNOFFICIAL STATION AND DATA

WAZ520-311710-
EAST SLOPES OF WASHINGTON CASCADES

CITY            SKY/WX      TMP DP  RH  WIND    PRES   REMARKS
#BULLFROG 2SW   N/A         64  41  43  CALM    30.07F
#BUMPING DAM    N/A         43  N/A N/A CALM    N/A
#CLE ELUM HS    N/A         49  48  96  S2      29.67R
#CLE ELUM 2NW   N/A         48  48  100 E1      N/A
#CLE ELUM LAKE  N/A         N/A N/A N/A NW5     29.67R
#CLIFFDEL 2NW   N/A         46  46  100 CALM    N/A
#GLENWOOD       N/A         51  50  96  S1      29.69R
#MANASTASH CYN  N/A         47  44  89  E1      29.70R
#NELSON         N/A         48  47  96  CALM    29.71R
#NELSON 3SW     N/A         45  44  96  CALM    29.88R
#NILE           N/A         48  47  96  CALM    28.97R
#RONALD 2NW     N/A         48  46  93  CALM    29.60R
#SNOWDEN        N/A         49  47  93  SE1     N/A
#TEANAWAY 4NE   N/A         49  49  100 CALM    N/A
#TROUT LAKE HS  N/A         52  52  100 CALM    N/A
#TROUT LAKE 1NE N/A         49  48  96  CALM    29.71R
$$

WAZ521-311710-
SIMCOE HIGHLANDS

CITY            SKY/WX      TMP DP  RH  WIND    PRES   REMARKS
#BICKLETON HS   N/A         47  46  96  W2      29.82S
#CENTERVILLE 4W N/A         51  49  93  SE5     29.47R
#CENTERVILLE 1SWN/A         50  48  93  S3      29.69
#GOLDENDALE     N/A         51  50  96  E2      N/A
#GOLDENDALE 1NE N/A         51  51  100 NE3     N/A
#GOLDENDALE 1S  N/A         50  49  96  E2      29.71R
#GOLDENDALE 5WNWN/A         51  49  93  E3      29.68R
#GOODNOE HILLS  N/A         51  51  100 CALM    29.68R
#LYLE 6NE       N/A         50  50  100 CALM    29.69R
$$

WAZ026-311710-
KITTITAS VALLEY

CITY            SKY/WX      TMP DP  RH  WIND    PRES   REMARKS
ELLENSBURG AP   CLOUDY      53  48  83  E6      29.71R
#ELLENSBURG CWU N/A         49  48  96  E6      29.65S
#ELLENSBURG 3NE N/A         50  49  96  CALM    29.72R
#ELLENSBURG     N/A         53  53  100 E2      N/A
#KITTITAS 3S    N/A         49  48  96  CALM    29.68R
#THORP 6N       N/A         48  48  100 SE2     29.71R
$$

WAZ027-311710-
YAKIMA VALLEY

CITY            SKY/WX      TMP DP  RH  WIND    PRES   REMARKS
SUNNYSIDE AP    LGT DRIZZLE 50  50  100 CALM    29.72R
YAKIMA AIRPORT  LGT RAIN    53  50  89  E8      29.72R FOG
YAKIMA-VAGABOND LGT RAIN SH 52  50  93  NW2     29.72R
#DONALD 2NE     N/A         53  52  96  CALM    30.05R
#GRANDVIEW      N/A         52  49  89  CALM    29.73R
#MABTON         N/A         53  51  93  CALM    29.72R
#MOXEE 2E       N/A         55  53  93  E2      29.69R
#NACHES 2SW     N/A         50  49  96  CALM    29.70S
#OUTLOOK DOT    N/A         N/A N/A N/A E2      N/A
#SELAH 8E       N/A         50  49  96  E1      N/A
#TERRACE HTS    N/A         51  50  96  CALM    29.67S
#TOPPENISH      N/A         51  50  96  CALM    29.63R
#WAPATO 4NE     N/A         52  52  100 CALM    30.04R
#W YAKIMA       N/A         51  50  96  E1      29.71R
#WHITE SWAN 5E  N/A         51  50  96  CALM    29.72R
#WILEY CITY 3W  N/A         50  36  58  S1      29.96S
$$

WAZ028-311710-
LOWER COLUMBIA BASIN...WASHINGTON

CITY            SKY/WX      TMP DP  RH  WIND    PRES   REMARKS
PASCO           CLOUDY      51  50  96  CALM    29.74S FOG
PROSSER AWOS    N/A         55  52  90  E3      29.75S
RICHLAND AWOS   LGT DRIZZLE 52  52  100 CALM    29.74S
#BASIN CITY 5SW N/A         50  49  96  CALM    29.72S
#CONNELL 5N     N/A         47  46  96  N1      29.73R
#CONNELL 5NW    N/A         47  46  96  CALM    29.69
#ELTOPIA 6NW    N/A         49  48  96  CALM    28.71R
#KENNEWICK      N/A         64  41  43  CALM    30.07F
#KENNEWICK 3S   N/A         51  49  93  CALM    29.72F
#PASCO-BROADMOORN/A         52  51  96  CALM    29.63R
#PATERSON       N/A         51  49  93  CALM    29.71R
#PROSSER        N/A         53  49  86  CALM    29.72R
#SAGEMOOR 2W    N/A         50  49  96  CALM    29.58S
#TOUCHET 2S     N/A         48  47  96  CALM    29.72R
#WEST PASCO     N/A         52  49  89  CALM    29.72S
$$

WAZ029-311710-
FOOTHILLS OF THE BLUES...WASHINGTON

CITY            SKY/WX      TMP DP  RH  WIND    PRES   REMARKS
WALLA WALLA AP  CLOUDY      55  48  77  E6      29.72S
#COLLEGE PLACE  N/A         52  47  83  CALM    29.74R
#LOWDEN 2SE     N/A         49  48  96  CALM    29.70R
#PLEASANT VIEW 1N/A         48  47  96  CALM    29.77S
#PRESCOTT       N/A         50  48  93  CALM    29.71S
#SUDBURY        N/A         53  N/A N/A CALM    N/A
#WHITMAN COLLEGEN/A         53  49  86  CALM    29.77R
#WAITSBURG 8N   N/A         51  49  93  CALM    29.68S
#WALLA WALLA 5E N/A         53  50  89  CALM    N/A
#WALLA WALLA U  N/A         53  50  89  CALM    29.71S
#WHITMAN MISSIONN/A         49  47  93  CALM    29.74R
$$

WAZ030-311710-
BLUE MOUNTAINS...WASHINGTON

CITY            SKY/WX      TMP DP  RH  WIND    PRES   REMARKS
$$

ORZ009-041-WAZ024-311710-
COLUMBIA RIVER GORGE

CITY            SKY/WX      TMP DP  RH  WIND    PRES   REMARKS
HOOD RIVER AP   LGT RAIN    54  52  93  NW9     29.76R
THE DALLES AP   LGT RAIN    55  54  96  MISG    29.75R FOG
#ARLINGTON AIRPON/A         50  50  100 CALM    29.99S
#ARLINGTON HS   N/A         53  51  93  CALM    29.65R
#CELILO DOT     N/A         55  52  90  NE2     N/A
#LYLE           N/A         56  54  93  S1      29.74R
#MARYHILL 2W    N/A         54  54  100 CALM    N/A
#MOSIER 1S      N/A         52  50  93  W6      29.79R
#MURDOCK        N/A         56  55  96  SW3     29.77R
#RUFUS DOT      N/A         54  52  93  N6      N/A

$$

ORZ510-311710-
NORTH CENTRAL OREGON

CITY            SKY/WX      TMP DP  RH  WIND    PRES   REMARKS
#CHENOWITH 1W   N/A         50  50  100 S7      N/A
#COW CYN RST AREN/A         47  N/A N/A SW6     N/A
#DUFUR 9E       N/A         50  48  93  S10     29.76R
#GRASS VALLEY   N/A         49  49  100 S1      N/A
#GRASS VALLEY 1SN/A         49  48  96  CALM    29.75R
#KENT DOT       N/A         47  44  89  SE5     N/A
#MAUPIN SCHOOL  N/A         52  51  96  CALM    28.64R
#MORO SCHOOL    N/A         50  50  100 CALM    29.75R
#SHANIKO 5WSW   N/A         46  42  86  S12     N/A    WCI 40
#SHANIKO 4NW    N/A         45  45  100 SW3     29.74R
#TYGH VALLEY 2NEN/A         51  50  96  CALM    29.72R
#WAPANITIA AIRPON/A         51  50  96  W9      29.75R
#WASCO DOT      N/A         51  50  96  CALM    N/A
#WASCO 5NE      N/A         50  49  96  CALM    29.72R
$$

ORZ511-311710-
CENTRAL OREGON

CITY            SKY/WX      TMP DP  RH  WIND    PRES   REMARKS
BEND AIRPORT    LGT RAIN    43  39  86  W3      29.81R
MADRAS AIRPORT  RAIN        48  48  100 SW14    29.77R WCI 42
PRINEVILLE AP   LGT DRIZZLE 45  43  93  W12G25  29.81R WCI 39
REDMOND AIRPORT LGT RAIN    45  40  82  NW15G24 29.78R WCI 38
#BEND 6E        N/A         44  40  86  CALM    29.75R
#BEND 1SW       N/A         43  41  93  S1      N/A
#BEND-KIM LN    N/A         45  43  93  CALM    29.76R
#CULVER         N/A         47  41  79  SW7     29.75
#LAKE BILLY CHINN/A         50  28  42  W10     29.85R
#POWELL BUTTE 3EN/A         47  45  93  SE2     N/A
#POWELL BUTTE   N/A         45  42  89  NW5     29.45R
#PRINEVILLE 3N  N/A         46  43  89  SW8     29.71R
#WARM SPRINGS   N/A         51  50  96  SW1     29.76R


ORZ509-311710-
EAST SLOPES OF OREGON CASCADES

CITY            SKY/WX      TMP DP  RH  WIND    PRES   REMARKS
#BLUE BOX PASS  N/A         39  -10 12  NW3     N/A
#CAMP SHERMAN   N/A         42  39  89  CALM    29.80R
#LA PINE DOT    N/A         40  36  85  NW1     N/A
#LA PINE 4NW    N/A         39  36  89  CALM    29.78R
#LAVA BUTTE DOT N/A         38  37  96  SE6     N/A
#SISTERS AIRPOR N/A         44  42  93  N6      29.91S
#SISTERS ODOT   N/A         44  N/A N/A SW1     N/A
#SISTERS 1NW    N/A         45  37  73  VRB7    N/A
#SISTERS 3N     N/A         42  37  82  SW3     29.80S
#SUNRIVER       N/A         41  39  93  S2      29.64R
#SUNRIVER AP    N/A         40  37  89  CALM    29.71R
#SUTTLE LK DOT  N/A         34  34  100 SW8     N/A
#TUMALO 3W      N/A         42  39  89  N3      29.61R
#WANOGA BUTTE D N/A         33  32  96  NW15G29 N/A    WCI 23

$$

ORZ044-311710-
LOWER COLUMBIA BASIN...OREGON

CITY            SKY/WX      TMP DP  RH  WIND    PRES   REMARKS
HERMISTON       CLOUDY      50  49  96  CALM    29.72S FOG
#BOARDMAN 3W    N/A         52  51  96  CALM    29.44S
#BOARDMAN 8SW   N/A         51  49  93  CALM    29.73R
#ECHO 8SW       N/A         51  48  89  CALM    29.70R
#IONE SCHOOL    N/A         50  41  71  CALM    29.72R
#IRRIGON 4NW    N/A         51  51  100 SW2     N/A
#UMATILLA SCHOOLN/A         49  49  100 CALM    29.77S
#UMATILLA       N/A         52  48  86  CALM    29.70S
$$

ORZ507-311710-
NORTHERN FOOTHILLS OF THE BLUES

CITY            SKY/WX      TMP DP  RH  WIND    PRES   REMARKS
PENDLETON AIRPT LGT RAIN    49  46  89  E9      29.71S
#ADAMS 3WNW     N/A         50  47  89  CALM    29.72R
#ATHENA         N/A         48  46  93  CALM    29.75R
#CAYUSE         N/A         52  47  83  CALM    29.70S
#HELIX SCHOOL   N/A         49  46  89  CALM    29.72R
#HELIX 3N       N/A         51  47  86  S5      29.72R
#HELIX 6SW      N/A         50  47  89  CALM    29.73R
#HOLDMAN 5SE    N/A         50  48  93  E1      29.73S
#HOLDMAN 6E     N/A         50  46  86  CALM    29.53S
#M-F FERNDALE   N/A         49  46  89  CALM    29.72S
#M-F GROVE ELEM N/A         53  45  74  CALM    29.72R
#M-FREEWATER 5SEN/A         53  47  80  CALM    29.73R
#PENDLETON DNTN N/A         49  45  86  E2      28.52S
#PDT AQUATIC CTRN/A         51  47  86  E3      29.73R
#PENDLETON 5NE  N/A         49  47  93  CALM    29.70S
#PDT SUNRIDGE   N/A         48  47  96  NE3     29.73S
#PENDLETON 7NW  N/A         51  47  86  E2      26.61F
#PILOT ROCK     N/A         51  46  83  S2      29.76R
#TUTUILLA       N/A         48  46  93  CALM    29.72R
#UMAPINE 2E     N/A         50  48  93  W1      29.70R
#WESTON SCHOOL  N/A         53  45  74  W2      29.70R

$$

ORZ508-311710-
SOUTHERN FOOTHILLS OF THE BLUES

CITY            SKY/WX      TMP DP  RH  WIND    PRES   REMARKS
LEXINGTON       PTCLDY      54  48  80  SE5     29.73S
#AJAX           N/A         49  43  80  CALM    29.69R
#CONDON SCHOOL  N/A         49  47  93  CALM    29.72R
#CONDON 5W      N/A         46  45  96  E5      29.72R
#FOSSIL SCHOOL  N/A         48  46  93  CALM    29.72S
#HEPPNER EOC    N/A         52  47  83  CALM    29.67S
#HEPPNER 4NE    N/A         51  45  80  E6      29.70S
#LEXINGTON 2SE  N/A         54  49  83  CALM    29.70R
#MIKKALO        N/A         50  47  89  CALM    29.73R
#OLEX 4N        N/A         50  49  96  CALM    29.74R
#RUGGS 5NE      N/A         50  46  86  E5      29.85F
#RUGGS 2SW      N/A         50  46  86  SW3     29.73R

$$

ORZ502-503-311710-
BLUE MOUNTAINS

CITY            SKY/WX      TMP DP  RH  WIND    PRES   REMARKS
MEACHAM         CLOUDY      44  42  93  CALM    29.76R
#BATTLE MTN DOT N/A         44  44  100 CALM    N/A
#HARDMAN 10S    N/A         44  42  93  CALM    29.83S
#HEPPNER 15SE   N/A         47  43  86  E1      29.66R
#LADD CYN SMT   N/A         53  29  39  SE12    N/A
#LADD CREEK ODOTN/A         50   0  12  SW1     N/A
#LONG CREEK HS  N/A         55  41  59  S18G31  29.71R
#N POWDER DOT   N/A         45  40  82  CALM    N/A
#PIKES PEAK     N/A         53  45  74  N2      27.99S
#TOLLGATE       N/A         46  39  76  CALM    29.74S
#TROY SCHOOL    N/A         42  40  93  CALM    29.64R
#UKIAH          N/A         44  42  93  CALM    29.75R
#WESTON 4E      N/A         48  44  86  CALM    29.64R
$$

ORZ505-311710-
JOHN DAY BASIN

CITY            SKY/WX      TMP DP  RH  WIND    PRES   REMARKS
JOHN DAY        CLOUDY      56  39  53  S22G30  29.80R
#DAYVILLE SCHOOLN/A         61  35  38  S2      29.74R
#MONUMENT HS    N/A         50  46  86  CALM    29.78R
#MT. VERNON 5SE N/A         51  39  63  S12G28  29.75R
#WINLOCK        N/A         48  47  96  CALM    29.85R
$$

ORZ506-311710-
OCHOCO AND JOHN DAY HIGHLANDS

CITY            SKY/WX      TMP DP  RH  WIND    PRES   REMARKS
#BUCK CREEK DOT N/A         54  40  59  S15     N/A
#HORSE RIDGE DO N/A         43  37  79  W14     N/A    WCI 36
#KEYES SMT DOT  N/A         49  39  68  NE6     N/A
#PAULINA SCHOOL N/A         53  36  52  CALM    29.80R
#PINE MTN OBS   N/A         37  34  89  W7      N/A
#PRAIRIE CITY   N/A         52  36  54  W5      29.78R
#SENECA         N/A         47  N/A N/A S7      N/A
#SENECA 9NW     N/A         46  40  79  CALM    29.73R
$$

ORZ049-311710-
GRANDE RONDE VALLEY

CITY            SKY/WX      TMP DP  RH  WIND    PRES   REMARKS
LA GRANDE       MOCLDY      52  37  56  N9      29.74R
#COVE           N/A         52  46  80  CALM    30.03S
#COVE SCHOOL    N/A         52  40  63  E1      29.75S
#COVE 6NW       N/A         49  41  74  CALM    29.72S
#ELGIN 3N       N/A         42  40  93  CALM    29.50S
#ELGIN 1E       N/A         42  38  86  CALM    N/A
#IMBLER SCHOOL  N/A         63  35  35  SW3     29.84S
#ISLAND CITY 4N N/A         49  48  96  CALM    29.81R
#LADD CYN DOT   N/A         58  33  39  S7      N/A
#UNION 1S       N/A         58  36  44  SE3     29.58S
$$

ORZ050-311710-
WALLOWA COUNTY

CITY            SKY/WX      TMP DP  RH  WIND    PRES   REMARKS
JOSEPH AIRPORT  CLOUDY      50  36  58  SE5     29.79R
#ENTERPRISE AP  N/A         43  35  73  CALM    29.73R
#ENTERPRISE HS  N/A         43  39  86  CALM    29.82R
#IMNAHA 10S     N/A         55  37  51  SW8     29.76S
#JOSEPH 3N      N/A         47  42  83  W7      29.81R
#JOSEPH 3W      N/A         51  36  56  N2      29.65R
#LOSTINE        N/A         40  38  92  CALM    29.58R
#MT HOWARD 8000 N/A         42  26  53  SW8G26  29.88R
#PROMISE 1S     N/A         44  38  79  CALM    29.85R
#SHEEP RDG 7000 N/A         46  26  45  CALM    29.65R
#WALLOWA SCHOOL N/A         38  37  96  CALM    30.73R



$$



USA.gov is the U.S. government's official web portal to all federal, state and local government web resources and services.